EW0395 Weather Reports


Display with metric or nautical units.
time (UTC)temp
F
wind
direction
speed
MPH
gust
MPH
rain 1hr
in
rain 24hr
in
rain mn
in
humidity
%
barometer
mb
20260506001533 62 138 0.0 1.0 0.00 0.00 0.00 78 1008.4
20260506000031 62 0 0.0 1.0 0.00 0.00 0.00 76 1008.3
20260505234531 62 0 0.0 1.0 0.00 0.00 0.00 76 1008.1
20260505233035 63 0 0.0 1.0 0.00 0.00 0.00 75 1008.2
20260505231534 63 0 0.0 2.0 0.00 0.00 0.00 74 1007.9
20260505230049 63 0 0.0 1.0 0.00 0.00 0.00 74 1007.8
20260505224533 64 284 0.0 4.0 0.00 0.00 0.00 73 1007.7
20260505223039 65 0 0.0 0.0 0.00 0.00 0.00 71 1007.3
20260505221530 65 0 0.0 0.0 0.00 0.00 0.00 67 1006.8
20260505220049 65 140 0.0 1.0 0.00 0.00 0.00 69 1006.2
20260505214536 65 117 1.0 4.0 0.00 0.00 0.00 69 1006.1
20260505213034 67 254 1.0 5.0 0.00 0.00 0.00 62 1006.1
20260505211531 75 235 3.0 8.0 0.00 0.00 0.00 41 1006.0
20260505210036 77 227 2.0 5.0 0.00 0.00 0.00 36 1004.6
20260505204535 77 240 1.0 5.0 0.00 0.00 0.00 38 1004.3
20260505203032 78 256 1.0 7.0 0.00 0.00 0.00 37 1004.3
20260505201533 78 164 1.0 11.0 0.00 0.00 0.00 37 1004.4
20260505200040 79 258 2.0 8.0 0.00 0.00 0.00 36 1004.5
20260505194532 79 240 3.0 7.0 0.00 0.00 0.00 36 1004.6
20260505193042 80 196 3.0 8.0 0.00 0.00 0.00 35 1004.6
20260505191537 79 229 3.0 8.0 0.00 0.00 0.00 34 1004.7
20260505190034 82 257 3.0 9.0 0.00 0.00 0.00 31 1004.9
20260505184532 82 242 2.0 10.0 0.00 0.00 0.00 33 1005.1
20260505183037 81 198 2.0 9.0 0.00 0.00 0.00 33 1005.3
20260505181530 81 67 2.0 7.0 0.00 0.00 0.00 33 1005.5
20260505180036 81 126 2.0 7.0 0.00 0.00 0.00 34 1005.5
20260505174532 80 220 2.0 4.0 0.00 0.00 0.00 35 1006.0
20260505173032 79 203 3.0 10.0 0.00 0.00 0.00 38 1006.1
20260505171532 81 257 2.0 6.0 0.00 0.00 0.00 35 1006.2
20260505170034 80 247 2.0 7.0 0.00 0.00 0.00 35 1006.1
20260505164531 79 265 2.0 8.0 0.00 0.00 0.00 37 1006.5
20260505163034 79 238 2.0 7.0 0.00 0.00 0.00 38 1006.9
20260505161541 77 175 2.0 7.0 0.00 0.00 0.00 40 1007.0
20260505153032 76 135 2.0 5.0 0.00 0.00 0.00 42 1008.1
20260505151535 76 176 2.0 6.0 0.00 0.00 0.00 43 1008.4
20260505124531 58 0 0.0 2.0 0.00 0.00 0.00 63 1008.5
20260505123033 58 194 0.0 3.0 0.00 0.00 0.00 64 1008.5
20260505121541 59 219 1.0 7.0 0.00 0.00 0.00 61 1008.2
20260505120034 59 189 0.0 4.0 0.00 0.00 0.00 63 1008.6
20260505114533 57 261 0.0 4.0 0.00 0.00 0.00 64 1008.9
20260505113030 55 27 1.0 3.0 0.00 0.00 0.00 66 1008.7
20260505111535 54 24 0.0 2.0 0.00 0.00 0.00 71 1008.4
20260505101543 53 0 0.0 1.0 0.00 0.00 0.00 68 1008.1
20260505100036 52 0 0.0 1.0 0.00 0.00 0.00 69 1008.1
20260505094531 51 0 0.0 1.0 0.00 0.00 0.00 70 1008.2
20260505093033 52 0 0.0 1.0 0.00 0.00 0.00 68 1008.4
20260505091534 52 0 0.0 2.0 0.00 0.00 0.00 69 1008.5
20260505090041 51 140 0.0 2.0 0.00 0.00 0.00 71 1008.6
20260505084541 50 0 0.0 1.0 0.00 0.00 0.00 72 1008.6
20260505083029 50 0 0.0 1.0 0.00 0.00 0.00 72 1008.5
20260505081531 50 0 0.0 0.0 0.00 0.00 0.00 71 1008.6
20260505080041 51 0 0.0 2.0 0.00 0.00 0.00 70 1008.6
20260505074530 51 0 0.0 2.0 0.00 0.00 0.00 69 1008.6
20260505073034 51 255 0.0 2.0 0.00 0.00 0.00 70 1008.6
20260505071543 50 0 0.0 1.0 0.00 0.00 0.00 71 1008.7
20260505070034 51 0 0.0 1.0 0.00 0.00 0.00 70 1008.7
20260505064537 51 0 0.0 4.0 0.00 0.00 0.00 70 1008.8
20260505063038 51 0 0.0 1.0 0.00 0.00 0.00 69 1008.8
20260505061534 52 0 0.0 2.0 0.00 0.00 0.00 68 1009.0
20260505060038 52 249 0.0 2.0 0.00 0.00 0.00 68 1009.0
20260505054538 52 0 0.0 2.0 0.00 0.00 0.00 67 1008.8
20260505053034 53 265 1.0 4.0 0.00 0.00 0.00 66 1008.9
20260505051534 53 206 0.0 5.0 0.00 0.00 0.00 66 1008.8
20260505041531 53 236 0.0 4.0 0.00 0.00 0.00 65 1008.8
20260505040033 54 247 0.0 4.0 0.00 0.00 0.00 64 1008.7
20260505034535 54 0 0.0 3.0 0.00 0.00 0.00 64 1008.7
20260505033038 54 204 0.0 1.0 0.00 0.00 0.00 63 1008.6
20260505031541 54 21 0.0 3.0 0.00 0.00 0.00 62 1008.5
20260505030032 55 205 0.0 4.0 0.00 0.00 0.00 60 1008.5
20260505024546 54 0 0.0 1.0 0.00 0.00 0.00 59 1008.4
20260505023041 55 0 0.0 1.0 0.00 0.00 0.00 57 1008.3
20260505021535 55 0 0.0 1.0 0.00 0.00 0.00 56 1008.3
20260505020034 54 0 0.0 2.0 0.00 0.00 0.00 59 1008.2
20260505014542 53 0 0.0 1.0 0.00 0.00 0.00 60 1008.3
20260505013032 53 0 0.0 0.0 0.00 0.00 0.00 62 1008.2
20260505011545 54 0 0.0 0.0 0.00 0.00 0.00 61 1008.1
20260505010033 53 0 0.0 1.0 0.00 0.00 0.00 61 1008.1
20260505004534 54 0 0.0 1.0 0.00 0.00 0.00 60 1007.9
20260505003032 55 0 0.0 1.0 0.00 0.00 0.00 59 1007.8